Weather History for Topeka, KS

Change the Weather History Date:

Thursday, October 30, 2014

  Actual Average Record
Temperature  
Mean Temperature 57 °F 52 °F  
Max Temperature 70 °F 63 °F 90 °F (1950)
Min Temperature 43 °F 40 °F 18 °F (1925)
Degree Days  
Heating Degree Days 8 14  
Month to date heating degree days 180 276  
Since 1 July heating degree days 229 343  
Cooling Degree Days 0 0  
Month to date cooling degree days 28 25  
Year to date cooling degree days 1611 1418  
Growing Degree Days 6 (Base 50)    
Moisture  
Dew Point 40 °F    
Average Humidity 58    
Maximum Humidity 83    
Minimum Humidity 33    
Precipitation  
Precipitation 0.00 in 0.08 in 1.35 in (2013)
Month to date precipitation 4.46 2.95  
Year to date precipitation 28.44 33.18  
Snow  
Snow 0.00 in 0.00 in T in (1991)
Month to date snowfall 0.0 0.3  
Year to date snowfall 23.1 11.6  
Since 1 July snowfall T 0.3  
Snow Depth 0.00 in    
Sea Level Pressure  
Sea Level Pressure 30.07 in    
Wind  
Wind Speed 11 mph (NNW)    
Max Wind Speed 25 mph    
Max Gust Speed 37 mph    
Visibility 10 miles    
Events Thunderstorm    
T = Trace of Precipitation, MM = Missing Value Source: NWS Daily Summary

Daily Weather History Graph

Daily Weather History Graph

Search for Another Location

Airport:

Trip Planner

Search our weather history database for the weather conditions in past years. The results will help you decide how hot, cold, wet, or windy it might be!

Date:

Astronomy

Oct. 30, 2014 Rise Set
Actual Time 7:47 AM CDT 6:23 PM CDT
Civil Twilight 7:20 AM CDT 6:51 PM CDT
Nautical Twilight 6:48 AM CDT 7:22 PM CDT
Astronomical Twilight 6:17 AM CDT 7:54 PM CDT
Moon 1:52 PM CDT No Moon Set
Length of Visible Light 11h 31m
Length of Day
10h 36m
Waxing Crescent, 45% of the Moon is Illuminated
Oct 30
Waxing Crescent
Oct 30
First Quarter
Nov 6
Full
Nov 14
Last Quarter
Nov 22
New

Hourly Weather History & Observations

Time (CDT) Temp. Dew Point Humidity Pressure Visibility Wind Dir Wind Speed Gust Speed Precip Events Conditions
12:53 AM 48.9 °F 37.9 °F 66% 30.06 in 10.0 mi ESE 4.6 mph - N/A   Clear
1:53 AM 44.1 °F 37.9 °F 79% 30.05 in 10.0 mi Calm Calm - N/A   Clear
2:53 AM 44.1 °F 39.0 °F 82% 30.03 in 10.0 mi Calm Calm - N/A   Clear
3:53 AM 50.0 °F 41.0 °F 71% 30.01 in 10.0 mi SSE 5.8 mph - N/A   Clear
4:53 AM 51.1 °F 39.9 °F 66% 29.99 in 10.0 mi South 4.6 mph - N/A   Partly Cloudy
5:41 AM 50.0 °F 42.1 °F 74% 30.00 in 10.0 mi North 5.8 mph - N/A Thunderstorm Mostly Cloudy
5:53 AM 50.0 °F 43.0 °F 77% 30.01 in 10.0 mi WNW 4.6 mph - N/A   Mostly Cloudy
6:53 AM 52.0 °F 41.0 °F 66% 29.99 in 10.0 mi South 5.8 mph - N/A   Mostly Cloudy
7:53 AM 51.1 °F 39.9 °F 66% 30.02 in 10.0 mi Calm Calm - N/A   Scattered Clouds
8:53 AM 53.1 °F 45.0 °F 74% 30.03 in 10.0 mi Calm Calm - N/A   Scattered Clouds
9:53 AM 57.9 °F 41.0 °F 53% 30.05 in 10.0 mi WNW 9.2 mph - N/A   Clear
10:53 AM 64.9 °F 42.1 °F 43% 30.04 in 10.0 mi NNW 12.7 mph - N/A   Clear
11:53 AM 68.0 °F 41.0 °F 37% 30.05 in 10.0 mi NNW 21.9 mph 29.9 mph N/A   Clear
12:53 PM 68.0 °F 39.9 °F 36% 30.05 in 10.0 mi NW 23.0 mph 32.2 mph N/A   Clear
1:53 PM 70.0 °F 39.9 °F 33% 30.04 in 10.0 mi NNW 15.0 mph - N/A   Clear
2:53 PM 69.1 °F 39.0 °F 33% 30.04 in 10.0 mi NW 17.3 mph 31.1 mph N/A   Clear
3:53 PM 69.1 °F 39.9 °F 35% 30.05 in 10.0 mi NNW 18.4 mph 24.2 mph N/A   Clear
4:53 PM 68.0 °F 39.0 °F 35% 30.07 in 10.0 mi NW 16.1 mph - N/A   Clear
5:53 PM 64.0 °F 39.9 °F 41% 30.09 in 10.0 mi NNW 11.5 mph - N/A   Clear
6:53 PM 59.0 °F 39.9 °F 49% 30.12 in 10.0 mi NW 8.1 mph - N/A   Clear
7:53 PM 57.0 °F 41.0 °F 55% 30.15 in 10.0 mi NNW 11.5 mph - N/A   Clear
8:53 PM 55.9 °F 41.0 °F 57% 30.18 in 10.0 mi NNW 13.8 mph - N/A   Clear
9:53 PM 54.0 °F 39.9 °F 59% 30.21 in 10.0 mi NNW 15.0 mph 21.9 mph N/A   Clear
10:53 PM 52.0 °F 39.0 °F 61% 30.24 in 10.0 mi NNW 16.1 mph 25.3 mph N/A   Clear
11:53 PM 48.9 °F 39.9 °F 71% 30.27 in 10.0 mi NNW 15.0 mph 21.9 mph N/A   Clear